Simultaneous Nadir Overpasses (SNOs) Predictions

Prediction of SNOs between LANDSAT-8 and NOAA-19 Satellite Orbit:

Table of predicted SNOs for the next 14.0 days since TLE Epoch: 11/4/2023
Index Date (LANDSAT-8) Time (LANDSAT-8) Lat,Lon (LANDSAT-8) SZA (LANDSAT-8 ) Date (NOAA-19) Time (NOAA-19) Lat,Lon (NOAA-19) SZA (NOAA-19 ) Distance(km) Time Diff (sec)
1 11/04/2023 22:03:10 80.90,-113.98 98.52 11/04/2023 22:03:10 80.91,-114.00 98.53 1.04 0
2 11/07/2023 04:26:19 80.91, 150.30 99.21 11/07/2023 04:26:27 80.91, 150.25 99.21 0.91 8
3 11/09/2023 10:49:28 80.90, 54.42 99.85 11/09/2023 10:49:44 80.91, 54.42 99.86 1.06 16
4 11/11/2023 16:23:10 -80.91, 151.09 79.53 11/11/2023 16:21:57 -80.90, 151.08 79.56 0.43 73
5 11/11/2023 17:12:36 80.91, -41.28 100.49 11/11/2023 17:13:00 80.91, -41.12 100.52 2.80 24
6 11/13/2023 22:46:18 -80.90, 55.24 78.94 11/13/2023 22:45:14 -80.90, 55.08 78.98 2.97 64
7 11/13/2023 23:35:44 80.90,-137.14 101.07 11/13/2023 23:36:17 80.91,-137.13 101.09 0.93 33
8 11/16/2023 05:09:25 -80.91, -40.42 78.35 11/16/2023 05:08:29 -80.91, -40.25 78.36 3.01 56



Historial Predications of SNOs between LANDSAT-8 and NOAA-19
